Location: ???????
(52.3000°N, 54.4667°E)
Time: 20:37:43
(UTC+00:00)

STARLINK-1094 - Pass Details

Date: 24 January 2020
Orbit: 348 x 351 km, 53.0° (Epoch: 16 February)

Event Time Altitude Azimuth Distance (km) Brightness Sun altitude
Rises 14:10:32 0° 264° (W) 2,160 8.6 -11.6°
Reaches altitude 10° 14:12:33 10° 266° (W) 1,319 7.0 -11.9°
Maximum altitude 14:15:29 79° 352° (N) 363 2.6 -12.3°
Enters shadow 14:17:02 25° 78° (ENE) 760 3.7 -12.6°
